www.pogodaiklimat.ru

Погода и климат >> Архив погоды >> Мали >> Кеньеб


ПОГОДА в Кеньебе

  • Прогноз погоды в Кеньебе
  • Монитор погоды в Кеньебе

АРХИВ ПОГОДЫ в Кеньебе

Время (UTC), дата Ветер
(напр.,м/с)
 
Видим.   Явления Облачность Т
(С)
Тd
(С)
f
(%)
Тe
(С)
Тes
(С)
Комфортность P
(гПа)
Po
(гПа)
Тmin
(С)
Tmax
(С)
R
(мм)
R24
(мм)
S
(см)
09 9.09 штиль 0 10 км 6/3 300 м
[Frnb Ac As Ci sp]
+25.1 +23.5 91 +34 +39 очень
душно
1014.1 999.0
15 9.09 штиль 0 10 км 6/5 900 м
[Cu med, cong Ci sp]
+32.4 +26.7 72 +50 +59 опасность
перегрева
1010.2 995.4
18 9.09 штиль 0 10 км 5/5 900 м
[Cb cap Ac lent Ci sp]
+31.0 +26.6 77 +47 +48 опасность
перегрева
1009.5 994.7 +33.7
21 9.09 штиль 0 10 км гроза без осадков 6/3 900 м
[Cb cap Ac As Ci sp]
+27.4 +26.3 94 +42 +42 опасность
перегрева
1012.1 997.2
00 10.09 штиль 0 10 км гроза без осадков 10/3 900 м
[Cb cap Ac As]
+26.6 +24.3 87 +37 +37 очень
душно
1012.3 997.5
03 10.09 штиль 0 10 км гроза без осадков 10/3 900 м
[Cb cap Ac As]
+25.8 +23.9 89 +35 +35 очень
душно
1011.9 997.2
06 10.09 штиль 0 10 км {гроза} 9/4 300 м
[Frnb Ac As]
+24.9 +24.0 95 +34 +34 очень
душно
1012.2 997.3 +24.9
09 10.09 штиль 0 10 км 8/4 900 м
[Sc Ac und]
+26.5 +25.7 95 +39 +42 очень
душно
1013.4 998.4
12 10.09 СЗ 1 10 км 8/5 900 м
[Cu med, cong Ac As]
+30.2 +25.2 75 +44 +51 опасность
перегрева
1012.9 998.0
15 10.09 В 1 10 км 6/6 900 м
[Cu med, cong]
+29.0 +25.5 81 +43 +50 опасность
перегрева
1009.8 995.0
18 10.09 штиль 0 10 км 8/4 900 м
[Cu med, cong Ci sp]
+32.2 +24.5 64 +45 +46 опасность
перегрева
1009.0 994.3 +33.3
21 10.09 С 1 8000 м гроза, ливневой дождь 10/4 900 м
[Cb cap Ac As]
+24.4 +23.1 92 +32 +32 очень
душно
1012.0 997.0
00 11.09 штиль 0 10 км в посл. час гроза {дождь} 9/4 900 м
[Sc diur, vesp Ac cuf Ci sp]
+23.8 +23.4 98 +32 +32 очень
душно
1012.0 997.2 10
03 11.09 Ю 1 10 км в посл. час гроза 9/6 900 м
[Sc diur, vesp Ac cuf]
+23.4 +22.8 96 +33 +33 очень
душно
1011.0 996.0
06 11.09 штиль 0 10 км {гроза} 9/5 300 м
[Frnb Ac As Ci sp]
+23.1 +23.0 99 +32 +32 очень
душно
1011.7 996.7 +23.1 10
09 11.09 штиль 0 10 км 8/3 300 м
[Frnb Ac As]
+25.8 +22.9 84 +34 +37 очень
душно
1012.4 997.4
12 11.09 С 2 10 км 8/4 600 м
[Sc Ci sp]
+30.0 +25.1 75 +43 +54 опасность
перегрева
1010.8 996.0
15 11.09 штиль 0 10 км 6/5 600 м
[Sc Ci sp]
+33.6 +24.0 57 +45 +55 опасность
перегрева
1007.9 993.2
18 11.09 штиль 0 10 км 5/3 600 м
[Sc Ci sp]
+32.9 +24.5 61 +45 +46 опасность
перегрева
1007.4 992.7 +34.2
21 11.09 штиль 0 10 км 5/3 600 м
[Sc Ci sp]
+28.7 +26.5 88 +44 +44 опасность
перегрева
1009.0 994.1
00 12.09 Ю 2 10 км 6/4 600 м
[Sc Ci sp]
+28.1 +25.2 84 +41 +41 опасность
перегрева
1010.7 995.9
03 12.09 Ю 2 10 км 5/0
[Ci sp]
+26.6 +24.5 88 +37 +37 очень
душно
1009.4 994.8
06 12.09 штиль 0 10 км 6/0
[Ci sp]
+25.0 +24.7 98 +35 +35 очень
душно
1009.6 994.8 +25.0
09 12.09 ЮЗ 2 10 км 8/1 600 м
[Sc Ci sp]
+28.1 +25.2 84 +41 +46 опасность
перегрева
1011.5 996.6
12 12.09 СЗ 2 10 км 10/3 600 м
[Sc Ci sp]
+31.8 +25.9 71 +47 +59 опасность
перегрева
1011.1 996.3
15 12.09 штиль 0 10 км гроза без осадков 10/6 600 м
[Cb cap Ac As]
+28.8 +26.3 86 +44 +46 опасность
перегрева
1009.0 994.1
03 15.09 штиль 0 10 км 6/0
[Ci sp]
+26.0 +25.3 96 +38 +38 очень
душно
1011.2 996.4
09 15.09 СЗ 2 10 км 10/5 180 м
[Frnb Ac As]
+27.2 +25.8 92 +40 +41 очень
душно
1012.5 997.6
12 15.09 СВ 2 10 км 9/6 600 м
[Sc Ac As Ci sp]
+30.1 +26.4 81 +46 +51 опасность
перегрева
1011.7 996.8
15 15.09 С 2 10 км 8/5 600 м
[Sc Ci sp]
+31.8 +26.7 74 +49 +55 опасность
перегрева
1009.5 994.7
18 15.09 штиль 0 10 км 10/1 600 м
[Sc Ci sp]
+31.1 +27.1 79 +49 +50 опасность
перегрева
1008.7 973.8 +32.6
21 15.09 штиль 0 10 км 8/1 600 м
[Sc Ci sp]
+28.6 +27.6 94 +46 +46 опасность
перегрева
1010.1 995.2
00 16.09 штиль 0 10 км 8/0
[Ci sp]
+27.2 +26.9 98 +42 +42 опасность
перегрева
1011.0 996.1
03 16.09 штиль 0 10 км 5/0
[Ci sp]
+26.6 +26.3 98 +40 +40 очень
душно
1011.3 995.3

 

Местоположение метеостанции Кеньеб (Мали): широта 12.85 долгота -11.23 высота над уровнем моря 132 м.

В архиве по умолчанию представлена погода в Кеньебе за последнюю неделю. Архивные данные за месяц целиком и за предыдущие месяцы, начиная с января 2011 года, Вы можете получить, выбрав интересующий диапазон дат из раскрывающегося списка и нажав кнопку "Ввод!".


*Определитесь, кто Вы:
робот инопланетянин человек

Внимание! Время в таблицах - всемирное. Для получения местного времени необходимо прибавить поправку, которая равна 0 ч.

Смотрите также архив погоды в соседних городах и на ближайших метеорологических станциях:

Погода в Кедугу (Сенегал) (111 км)
Погода в Каесе (Мали) (177 км)
Погода в Ките (Мали) (192 км)
Погода в Кундаре (Гвинея) (249 км)
Погода в Фатото (Гамбия) (261 км)
Погода в Йелимане (Мали) (263 км)
Погода в Тамбакунде (Сенегал) (284 км)
Погода в Бассе (Гамбия) (327 км)
Погода в Ниоро-Дю-Сахель (Мали) (333 км)
Погода в Бамако (Мали) (358 км)

Пояснения к столбцам:

Ветер - указаны скорость ветра в м/с - средняя за 10 мин, порывы в срок и между сроками (в фигурных скобках) и направление, откуда дует ветер: С - северный, СВ - северо-восточный, В - восточный, ЮВ - юго-восточный, Ю - южный, ЮЗ - юго-западный, З - западный, СЗ - северо-западный.
Видимость - горизонтальная дальность видимости в метрах или километрах. При видимости от 1 до 10 км при отсутствии осадков обычно наблюдается дымка, при ухудшении видимости до 1 км и менее - туман. В сухую погоду видимость может ухудшаться дымом, пылью или мглою.
Явления - указаны атмосферные явления, наблюдавшиеся в срок или в последний час перед сроком; фигурными скобками обозначены явления, наблюдавшиеся между сроками (за 1-3 часа до срока); квадратными скобками обозначены град или гололедные отложения с указанием их диаметра в мм.
Облачность - указаны через наклонную черту общая и нижняя облачность в баллах и высота нижней границы облаков в метрах; квадратными скобками обозначены формы облаков: Ci - перистые, Cs - перисто-слоистые, Cc - перисто-кучевые, Ac - высококучевые, As - высокослоистые, Sc - слоисто-кучевые, Ns - слоисто-дождевые, Cu - кучевые, Cb - кучево-дождевые. Подробнее классификацию облаков см. в Атласе облаков (PDF).
T - Температура воздуха - температура, измеренная на высоте 2 м над землей.
Td - Температура точки росы - температура, при понижении до которой содержащийся в воздухе водяной пар достигнет насыщения.
f - Относительная влажность воздуха - влажноcть воздуха, измеренная на высоте 2 м над землей.
Te - Эффективная температура - температура, которую ощущает одетый по сезону человек в тени. Характеристика душности погоды. При расчете учитывается влияние влажности воздуха и скорости ветра на теплоощущения человека.
Tes - Эффективная температура на солнце - температура, которую ощущает человек, с поправкой на солнечный нагрев. Характеристика знойности погоды. Зависит от высоты солнца над горизонтом, облачности и скорости ветра. Ночью, в пасмурную погоду, а также при ветре 12 м/с и более поправка равна нулю.
P - Атмосферное давление - приведенное к уровню моря атмосферное давление.
Po - Атмосферное давление - измеренное на уровне метеостанции атмосферное давление.
Tmin - Минимальная температура - минимум температуры воздуха на высоте 2 м над землей.
Tmax - Максимальная температура - максимум температуры воздуха на высоте 2 м над землей.
R - Количество осадков - Количество выпавших осадков за период времени, мм. При наведении курсора мыши на число - период времени, за который выпало указанное количество осадков.
R24 - Количество осадков - Количество выпавших осадков за 24 часа, мм.
S - Снежный покров - Высота снежного покрова, см. При наведении курсора мыши на число - состояние снежного покрова и степень покрытия местности в баллах.